Simultaneous Nadir Overpasses (SNOs) Predictions

Prediction of SNOs between GOES-15 and NOAA-19 Satellite Orbit:

Table of predicted SNOs for the next 14.0 days since TLE Epoch: 1/5/2025
Index Date Time (GOES-15) GOES-15 Lat,Lon NOAA-19 Lat,Lon Distance(km) Time Diff (sec)
1 01/05/2025 17:31:57 0.04, 61.42 0.01, 61.20 24.48 80
2 01/06/2025 17:16:46 0.04, 61.43 0.67, 64.25 321.81 80
3 01/09/2025 05:35:30 -0.03, 61.41 0.33, 59.78 186.56 80
4 01/10/2025 05:25:39 -0.03, 61.42 -0.34, 62.82 159.65 80
5 01/12/2025 17:44:41 0.03, 61.46 -0.72, 58.29 362.57 80
6 01/13/2025 17:32:10 0.03, 61.48 0.03, 61.32 17.24 80
7 01/14/2025 17:16:58 0.03, 61.49 0.66, 64.38 328.70 80
8 01/17/2025 05:35:42 -0.02, 61.51 0.37, 59.91 182.89 80
9 01/18/2025 05:25:50 -0.02, 61.52 -0.33, 62.96 163.45 80
